Weather History for West Palm Beach, FL

Change the Weather History Date:

Wednesday, January 23, 2013

  Actual Average Record
Temperature  
Mean Temperature 68 °F 66 °F  
Max Temperature 76 °F 75 °F 87 °F (1973)
Min Temperature 59 °F 57 °F 32 °F (1985)
Degree Days  
Heating Degree Days 0 3  
Month to date heating degree days 3 69  
Since 1 July heating degree days 46 140  
Cooling Degree Days 3 3  
Month to date cooling degree days 181 76  
Year to date cooling degree days 181 76  
Growing Degree Days 18 (Base 50)    
Moisture  
Dew Point 53 °F    
Average Humidity 62    
Maximum Humidity 78    
Minimum Humidity 46    
Precipitation  
Precipitation 0.00 in 0.10 in 1.76 in (1908)
Month to date precipitation 0.76 2.39  
Year to date precipitation 0.76 2.39  
Snow  
Snow 0.00 in - - ()
Month to date snowfall 0.0  
Since 1 July snowfall 0.0  
Snow Depth 0.00 in    
Sea Level Pressure  
Sea Level Pressure 30.25 in    
Wind  
Wind Speed 9 mph (North)    
Max Wind Speed 15 mph    
Max Gust Speed 20 mph    
Visibility 10 miles    
Events      
T = Trace of Precipitation, MM = Missing Value Source: NWS Daily Summary

Daily Weather History Graph

Daily Weather History Graph

Search for Another Location

Airport:

Trip Planner

Search our weather history database for the weather conditions in past years. The results will help you decide how hot, cold, wet, or windy it might be!

Date:

Astronomy

Jan. 23, 2013 Rise Set
Actual Time 7:08 AM EST 5:56 PM EST
Civil Twilight 6:44 AM EST 6:20 PM EST
Nautical Twilight 6:16 AM EST 6:48 PM EST
Astronomical Twilight 5:48 AM EST 7:16 PM EST
Moon 3:09 PM EST (1/23) 4:14 AM EST (1/23)
Length of Visible Light 11h 36m
Length of Day
10h 47m
Waxing Gibbous, 89% of the Moon is Illuminated
Jan 23
Waxing Gibbous
Jan 26
Full
Feb 3
Last Quarter
Feb 10
New
Feb 17
First Quarter

Hourly Weather History & Observations

Time (EST) Temp. Dew Point Humidity Pressure Visibility Wind Dir Wind Speed Gust Speed Precip Events Conditions
12:53 AM 68.0 °F 50.0 °F 52% 30.22 in 10.0 mi NE 10.4 mph - N/A   Scattered Clouds
1:53 AM 68.0 °F 50.0 °F 52% 30.20 in 10.0 mi NE 8.1 mph - N/A   Mostly Cloudy
2:53 AM 68.0 °F 48.9 °F 50% 30.21 in 10.0 mi NNE 6.9 mph - N/A   Mostly Cloudy
3:53 AM 68.0 °F 50.0 °F 52% 30.21 in 10.0 mi NNE 6.9 mph - N/A   Mostly Cloudy
4:53 AM 62.1 °F 54.0 °F 75% 30.21 in 10.0 mi NW 6.9 mph - N/A   Mostly Cloudy
5:53 AM 61.0 °F 54.0 °F 78% 30.22 in 10.0 mi NNW 8.1 mph - N/A   Mostly Cloudy
6:53 AM 62.1 °F 53.1 °F 72% 30.24 in 10.0 mi North 6.9 mph - N/A   Mostly Cloudy
7:53 AM 61.0 °F 53.1 °F 75% 30.27 in 10.0 mi NNW 10.4 mph - N/A   Mostly Cloudy
8:53 AM 64.0 °F 54.0 °F 70% 30.28 in 10.0 mi North 12.7 mph - N/A   Mostly Cloudy
9:53 AM 64.9 °F 54.0 °F 68% 30.30 in 10.0 mi NNW 11.5 mph - N/A   Mostly Cloudy
10:53 AM 70.0 °F 55.9 °F 61% 30.30 in 10.0 mi North 10.4 mph - N/A   Mostly Cloudy
11:53 AM 71.1 °F 57.0 °F 61% 30.28 in 10.0 mi North 12.7 mph 18.4 mph N/A   Mostly Cloudy
12:53 PM 75.0 °F 53.1 °F 46% 30.26 in 10.0 mi NE 8.1 mph 18.4 mph N/A   Mostly Cloudy
1:53 PM 72.0 °F 52.0 °F 49% 30.24 in 10.0 mi ENE 11.5 mph - N/A   Mostly Cloudy
2:53 PM 72.0 °F 52.0 °F 49% 30.23 in 10.0 mi ENE 9.2 mph - N/A   Mostly Cloudy
3:53 PM 73.0 °F 51.1 °F 46% 30.24 in 10.0 mi ENE 8.1 mph - N/A   Mostly Cloudy
4:53 PM 72.0 °F 52.0 °F 49% 30.25 in 10.0 mi NNE 10.4 mph - N/A   Mostly Cloudy
5:53 PM 69.1 °F 55.0 °F 61% 30.25 in 10.0 mi North 9.2 mph - N/A   Scattered Clouds
6:53 PM 66.0 °F 55.9 °F 70% 30.25 in 10.0 mi NNW 10.4 mph - N/A   Partly Cloudy
7:53 PM 64.9 °F 55.0 °F 70% 30.27 in 10.0 mi NNW 10.4 mph - N/A   Partly Cloudy
8:53 PM 63.0 °F 54.0 °F 72% 30.28 in 10.0 mi NNW 9.2 mph - N/A   Partly Cloudy
9:53 PM 62.1 °F 54.0 °F 75% 30.28 in 10.0 mi NNW 6.9 mph - N/A   Partly Cloudy
10:53 PM 60.1 °F 53.1 °F 78% 30.27 in 10.0 mi NNW 6.9 mph - N/A   Partly Cloudy
11:53 PM 59.0 °F 53.1 °F 81% 30.26 in 10.0 mi NW 5.8 mph - N/A   Partly Cloudy